#timestamp,LO_Frequency,Hit,StdDev 
1544184015.3,286046990.6,N
1544184035.2,286046990.6,N
1544184055.0,286046990.1,N
1544184055.9,286046990.1,N
1544184075.8,286046993.0,N
1544184095.6,286046992.4,N
1544184115.4,286047000.2,N
1544184135.3,286047003.9,N
1544184155.1,286047000.1,N
1544184175.8,286047000.4,N
1544184195.7,286047000.4,N
1544184215.5,286047003.9,N
1544184235.4,286047002.1,N
1544184255.2,286046998.8,N
1544184275.0,286046996.6,N
1544184275.9,286046996.6,N
1544184295.8,286046997.1,N
1544184315.6,286046998.9,N
1544184335.4,286046995.5,N
1544184355.3,286046996.2,N
1544184375.1,286046993.5,N
1544184395.9,286046990.5,N
1544184415.7,286046992.1,N
1544184435.5,286046993.6,N
1544184455.4,286046993.3,N
1544184475.2,286046993.0,N
1544184495.0,286046992.9,N
1544184495.9,286046992.9,N
1544184515.8,286046992.9,N
1544184535.6,286046990.4,N
1544184555.5,286046993.6,N
1544184575.3,286046997.6,N
1544184595.1,286046996.6,N
1544184615.9,286046997.5,N
1544184635.7,286046996.3,N
1544184655.5,286046994.3,N
1544184675.4,286046993.0,N
1544184695.2,286046988.6,Y
1544184715.1,286046995.5,P
1544184716.0,286046995.5,P
1544184735.8,286046995.5,P
1544184755.6,286046998.0,Y
1544184775.5,286047000.8,P
1544184795.3,286046999.9,N
1544184815.1,286047002.3,N
1544184835.9,286047000.4,N
1544184855.7,286047000.9,N
1544184875.6,286046998.8,N
1544184895.4,286046998.7,N
1544184915.2,286046996.9,N
1544184935.1,286046997.5,N
1544184936.0,286046997.5,N
1544184955.8,286046995.1,N
1544184975.6,286046994.9,N
1544184995.5,286046994.1,N
1544185015.3,286046994.7,N
1544185035.1,286046998.0,N
1544185055.9,286046995.6,N
1544185075.7,286046995.0,N
1544185095.6,286046996.6,N
1544185115.4,286046996.6,N
1544185135.2,286046999.6,N
1544185155.1,286046997.8,N
1544185156.0,286046997.8,N
1544185175.8,286046995.1,N
1544185195.6,286046995.4,N
1544185215.5,286046997.1,N
1544185235.3,286046997.8,N
1544185255.1,286047004.0,N
1544185275.9,286047009.0,Y
1544185295.7,286047012.1,P
1544185315.6,286047013.9,N
1544185335.4,286047017.0,N
1544185355.2,286047023.4,Y
1544185375.1,286047016.7,P
1544185376.0,286047016.7,P
1544185395.8,286047015.0,P
1544185415.7,286047012.8,Y
1544185435.5,286047002.3,P
1544185455.3,286047004.3,N
1544185475.2,286046998.1,N
1544185495.0,286046995.2,N
1544185495.9,286046995.2,N
1544185515.7,286046992.2,N
1544185535.6,286046988.5,N
1544185555.4,286046985.3,N
1544185575.3,286046984.4,N
1544185595.1,286046980.8,N
1544185596.0,286046980.8,N
1544185615.8,286046977.5,N
1544185635.7,286046974.1,N
1544185655.5,286046972.7,N
1544185675.3,286046976.1,N
1544185695.2,286046981.5,N
1544185715.0,286046981.3,N
1544185715.9,286046981.3,N
1544185735.8,286046982.1,N
1544185755.6,286046985.5,N
1544185775.4,286046994.8,N
1544185795.3,286046996.6,N
1544185815.1,286046995.9,N
1544185835.8,286046990.8,N
1544185855.7,286046987.5,N
1544185875.5,286046986.7,N
1544185895.4,286046986.2,N
1544185915.2,286046990.4,N
1544185965.1,286046989.8,E
1544185975.9,286046994.3,N
1544185995.7,286046999.3,P
1544186015.6,286046997.1,N
1544186035.4,286046997.9,N
1544186055.2,286046992.6,Y
1544186075.1,286046990.7,P
1544186076.0,286046990.7,N
1544186095.8,286046989.2,P
1544186115.7,286046987.6,Y
1544186135.5,286046995.6,P
1544186155.3,286046993.6,P
1544186175.2,286046992.9,P
1544186195.9,286046991.7,Y
1544186215.7,286046998.5,P
1544186235.6,286046999.3,N
1544186255.4,286046996.8,N
1544186275.3,286046996.6,N
1544186295.1,286046999.0,N
1544186296.0,286046999.0,N
1544186315.8,286047000.7,N
1544186335.7,286047003.4,N
1544186355.5,286047005.6,N
1544186375.3,286047007.2,N
1544186395.2,286047004.1,N
1544186415.0,286047003.8,N
1544186415.9,286047003.8,N
1544186435.8,286047001.6,N
1544186455.6,286047001.0,N
1544186475.4,286046999.6,N
1544186495.3,286047001.4,N
1544186515.1,286047005.4,N
1544186535.8,286047004.3,N
1544186555.7,286047005.9,N
1544186575.5,286047003.6,N
1544186595.3,286046999.8,N
1544186615.2,286046998.1,N
1544186635.0,286047001.0,N
1544186635.9,286047001.0,N
1544186655.8,286046999.6,N
1544186675.6,286046997.6,N
1544186695.4,286046998.4,N
1544186715.3,286047000.9,N
1544186735.1,286047000.6,N
1544186755.9,286046998.1,N
1544186775.7,286046996.6,N
1544186795.5,286046997.5,N
1544186815.4,286046993.8,N
1544186835.2,286046992.1,N
1544186855.0,286046990.7,N
1544186855.9,286046990.7,N
1544186875.8,286046991.8,N
1544186895.6,286046998.6,N
1544186915.5,286047005.4,N
1544186935.3,286047007.2,N
1544186955.1,286047007.0,N
1544186975.9,286047006.3,N
1544186995.7,286047007.1,N
1544187015.5,286047006.2,N
1544187035.4,286047008.4,N
1544187055.2,286047006.9,N
1544187075.0,286047005.6,N
1544187076.0,286047005.6,N
1544187095.8,286047006.9,N
1544187115.6,286047006.0,N
1544187135.5,286047003.3,N
1544187155.3,286047006.9,N
1544187175.1,286047005.2,N
1544187195.9,286047005.9,N
1544187215.7,286047004.1,N
1544187235.6,286047002.7,N
1544187255.4,286046996.9,N
1544187275.2,286046996.8,N
1544187295.1,286046996.8,N
1544187296.0,286046996.8,N
1544187315.8,286047003.2,N
1544187335.7,286047008.8,N
1544187355.5,286047005.2,N
1544187375.3,286047010.1,N
1544187395.2,286047014.6,N
1544187415.9,286047017.6,Y
1544187435.7,286047016.0,P
1544187455.6,286047019.3,P
1544187475.4,286047022.2,P
1544187495.3,286047024.9,Y
1544187515.1,286047008.1,P
1544187516.0,286047008.1,N
1544187535.8,286047010.0,N
1544187555.7,286047009.9,Y
1544187575.5,286047004.2,P
1544187595.3,286047005.5,N
